Location: Aldenham
(51.6667°N, 0.3500°W)
Time: 20:45:54
(UTC+00:00)

ACS3 Solar Sail - Visible Passes

Search period start: 19 January 2026 00:00
Search period end: 29 January 2026 00:00
Orbit: 898 x 978 km, 97.2° (Epoch: 19 January)

Date Brightness Start Highest point End Pass type
(mag) Time Alt. Az. Time Alt. Az. Time Alt. Az.
19 Jan 4.2 03:47:40 10° N 03:47:43 10° N 03:47:43 10° N visible
20 Jan 4.2 04:01:42 10° N 04:01:47 10° N 04:01:47 10° N visible
21 Jan 4.1 04:15:47 10° N 04:15:50 10° N 04:15:50 10° N visible
23 Jan 4.4 03:00:03 10° N 03:00:05 10° N 03:00:05 10° N visible
24 Jan 4.3 03:13:59 10° N 03:14:09 11° N 03:14:09 11° N visible
25 Jan 4.2 03:27:57 10° N 03:28:13 11° N 03:28:13 11° N visible
26 Jan 4.1 03:41:57 10° N 03:42:17 11° N 03:42:17 11° N visible
27 Jan 4.1 03:55:59 10° N 03:56:20 11° N 03:56:20 11° N visible
28 Jan 4.0 04:10:04 10° N 04:10:24 11° N 04:10:24 11° N visible
